Location: Beddau
(51.5575°N, 3.3561°W)
Time: 13:53:11
(UTC+00:00)

Cosmos 1378 - Pass Details

Date: 03 March 2021
Orbit: 489 x 501 km, 82.5° (Epoch: 10 April)

Event Time Altitude Azimuth Distance (km) Brightness Sun altitude
Rises 19:58:28 0° 351° (N) 2,606 7.1 -19.5°
Reaches altitude 10° 20:00:37 10° 355° (N) 1,715 6.1 -19.8°
Enters shadow 20:04:10 63° 59° (ENE) 564 3.1 -20.3°
